Regional Weather Roundup
Issued by NWS

Home | Current Version | Previous Version | Text Only | Print | Product List | Glossary Off
Versions: 1 2 3 4 5 6 7 8 9 10 11 12 13 14 15 16 17 18 19 20 21 22 23 24 25 26 27 28 29 30 31 32 33 34 35 36 37 38 39 40 41 42 43 44 45 46 47 48 49 50

000
ASUS43 KOAX 291510
RWRNE

WEATHER ROUNDUP FOR NEBRASKA
NATIONAL WEATHER SERVICE OMAHA NE
1000 AM CDT MON JUN 29 2015

NOTES: SATELLITE DATA IS BEING USED TO AUGMENT CLOUD COVER ABOVE
       12000 FEET.
       "FAIR" INDICATES FEW OR NO CLOUDS BELOW 12,000 FEET WITH NO
       SIGNIFICANT WEATHER AND/OR OBSTRUCTIONS TO VISIBILITY.

  * THESE STATIONS DO NOT REPORT WEATHER SUCH AS RAIN...SNOW OR FOG.

NEZ001>004-019>022-054>056-291600-
NEBRASKA PANHANDLE

CITY           SKY/WX    TMP DP  RH WIND       PRES   REMARKS
SCOTTSBLUFF    MOSUNNY   74  58  57 W6        30.18F
ALLIANCE       CLOUDY    70  62  76 SW3       30.16F
CHADRON        CLOUDY    69  63  81 SW14      30.09F
KIMBALL          N/A    N/A N/A N/A MISG        N/A
SIDNEY         SUNNY     73  61  65 NW12      30.19R
$$

NEZ057>060-069>072-079>082-291600-
SOUTHWEST NEBRASKA

CITY           SKY/WX    TMP DP  RH WIND       PRES   REMARKS
NORTH PLATTE   PTSUNNY   77  60  55 W8        30.10R
IMPERIAL       SUNNY     78  59  51 E6        30.11F
LEXINGTON      SUNNY     76  60  57 W3        30.07F
MCCOOK         MOSUNNY   77  59  53 MISG      30.10R
OGALLALA       SUNNY     77  58  53 E5        30.12S
$$

NEZ005>010-023>029-035>040-094-291600-
NORTH CENTRAL NEBRASKA

CITY           SKY/WX    TMP DP  RH WIND       PRES   REMARKS
VALENTINE      SUNNY     78  61  55 NW7       30.07F
AINSWORTH      SUNNY     77  61  57 NW10      30.07F
BROKEN BOW     SUNNY     76  60  57 W7        30.07S
O`NEILL        SUNNY     73  62  67 W6        30.04S
ORD            SUNNY     74  61  63 NW6       30.03F
THEDFORD       SUNNY     78  63  60 W6        30.10F
$$

NEZ041-046>049-061>064-073>077-083>087-291600-
SOUTH CENTRAL NEBRASKA

CITY           SKY/WX    TMP DP  RH WIND       PRES   REMARKS
GRAND ISLAND   SUNNY     73  58  59 NW7       30.04S
AURORA         SUNNY     74  58  58 NW9       30.03S
HASTINGS       SUNNY     73  58  59 NW6       30.05S
HEBRON         SUNNY     74  60  61 NW5       30.02S
HOLDREGE       SUNNY     75  55  49 W5        30.07S
KEARNEY *      SUNNY     75  55  50 NW8       30.06S
YORK           SUNNY     75  59  57 NW9       30.02S
$$

NEZ011>018-030>034-042>045-291600-
NORTHEAST NEBRASKA

CITY           SKY/WX    TMP DP  RH WIND       PRES   REMARKS
NORFOLK        SUNNY     74  62  66 NW9       29.99S
ALBION         SUNNY     74  58  58 NW8       30.02S
BLAIR          SUNNY     73  62  66 NW6       29.96S
COLUMBUS *     SUNNY     73  61  64 W7        29.99S
FREMONT        SUNNY     77  61  57 NW7       29.97S
TEKAMAH        SUNNY     77  63  61 NW7       29.94F
WAYNE          SUNNY     73  63  71 NW6       29.98S
$$

NEZ050>053-065>068-078-088>093-291600-
SOUTHEAST NEBRASKA

CITY           SKY/WX    TMP DP  RH WIND       PRES   REMARKS
LINCOLN        SUNNY     79  61  53 W9        29.98S
OMAHA EPPLEY   CLOUDY    76  63  64 NW5       29.94S
BEATRICE       SUNNY     75  62  64 NW8       29.99S
FALLS CITY     SUNNY     77  65  66 W7        29.95S
NEBRASKA CITY  SUNNY     77  56  48 NW10      29.96S
PLATTSMOUTH    SUNNY     74  61  63 NW9       29.96S
$$

NEZ044-045-051>053-067-291600-
OMAHA AREA

CITY           SKY/WX    TMP DP  RH WIND       PRES   REMARKS
OMAHA EPPLEY   CLOUDY    76  63  64 NW5       29.94S
BLAIR          SUNNY     73  62  66 NW6       29.96S
FREMONT        SUNNY     77  61  57 NW7       29.97S
MILLARD        SUNNY     74  63  67 W7        29.95S
OFFUTT AFB     SUNNY     75  64  67 NW7       29.94S
PLATTSMOUTH    SUNNY     74  61  63 NW9       29.96S
WAHOO          FAIR      76  60  57 NW8       29.97S
$$


USA.gov is the U.S. government's official web portal to all federal, state and local government web resources and services.